Hourly Data Report for October 28, 2015

All times are specified in Local Standard Time (LST). Add 1 hour to adjust for Daylight Saving Time where and when it is observed.

BATHURST A
NEW BRUNSWICK

47°37'47.000" N
65°44'20.000" W
58.80 m
8100505
71574
ZBF

Download Data

Hourly Data (October 2015)
Hourly Data Report for October 28, 2015
Temp Definition
°C
Dew Point Temp Definition
°C
Rel Hum Definition
%
Wind Dir Definition
10's deg

Wind Spd Definition
km/h
Visibility Definition
km
Stn Press Definition
kPa
Hmdx Definition


Wind Chill Definition


Weather Definition


TIME
00:00 Legend Double Dagger 0.7 -6.4 59 27 9 24.1 102.41     LegendNANA
01:00 Legend Double Dagger -1.2 -6.4 68 23 5 24.1 102.47   -3 LegendNANA
02:00 Legend Double Dagger -2.1 -6.5 72 26 10 24.1 102.52   -6 Clear
03:00 Legend Double Dagger -3.3 -6.1 81 22 6 24.1 102.56   -6 LegendNANA
04:00 Legend Double Dagger -2.7 -6.4 76 26 11 24.1 102.59   -7 LegendNANA
05:00 Legend Double Dagger -2.7 -6.5 75 26 12 24.1 102.64   -7 Clear
06:00 Legend Double Dagger -3.0 -6.5 77 24 6 24.1 102.65   -5 LegendNANA
07:00 Legend Double Dagger -4.7 -7.2 83 25 7 24.1 102.70   -8 LegendNANA
08:00 Legend Double Dagger -2.1 -5.4 78 25 10 24.1 102.69   -6 Mainly Clear
09:00 Legend Double Dagger 1.0 -5.3 63 23 8 24.1 102.78     LegendNANA
10:00 Legend Double Dagger 3.3 -5.4 53 23 12 24.1 102.68     LegendNANA
11:00 Legend Double Dagger 5.7 -5.0 46 26 23 24.1 102.58     Mostly Cloudy
12:00 Legend Double Dagger 7.1 -6.6 37 27 13 24.1 102.44     LegendNANA
13:00 Legend Double Dagger 8.1 -6.5 35 28 9 24.1 102.37     LegendNANA
14:00 Legend Double Dagger 8.9 -7.3 31 27 9 24.1 102.31     Cloudy
15:00 Legend Double Dagger 6.7 -1.7 55 4 10 24.1 102.24     LegendNANA
16:00 Legend Double Dagger 5.2 -1.3 63 6 7 24.1 102.20     LegendNANA
17:00 Legend Double Dagger 4.0 -1.0 70 4 4 24.1 102.18     Cloudy
18:00 Legend Double Dagger 1.4 -1.7 80 24 5 24.1 102.14     LegendNANA
19:00 Legend Double Dagger 1.1 -1.3 84 36 2 24.1 102.11     LegendNANA
20:00 Legend Double Dagger 0.6 -1.2 88 25 5 24.1 102.01     Cloudy
21:00 Legend Double Dagger 1.2 -1.4 83 22 6 24.1 101.95     LegendNANA
22:00 Legend Double Dagger 2.2 -1.2 78 20 4 24.1 101.84     LegendNANA
23:00 Legend Double Dagger 4.0 -0.6 72 18 5 19.3 101.77     Rain Showers

Notes on Data Quality.

Legend

  • E = Estimated
  • M = Missing
  • NA = Not Available
  • ‡ = Partner data that is not subject to review by the National Climate Archives
Date modified: